TimeCST,TemperatureF,Dew PointF,Humidity,Sea Level PressureIn,VisibilityMPH,Wind Direction,Wind SpeedMPH,Gust SpeedMPH,PrecipitationIn,Events,Conditions,WindDirDegrees,DateUTC
12:14 AM,8.6,-0.4,67,30.21,10.0,North,15.0,-,N/A,,Mostly Cloudy,360,2014-03-01 06:14:00
12:35 AM,8.6,-0.4,67,30.22,7.0,North,15.0,19.6,N/A,,Mostly Cloudy,350,2014-03-01 06:35:00
12:54 AM,8.6,-0.4,67,30.22,10.0,North,12.7,19.6,N/A,,Mostly Cloudy,360,2014-03-01 06:54:00
1:14 AM,8.6,-0.4,67,30.24,7.0,North,13.8,20.7,N/A,,Overcast,350,2014-03-01 07:14:00
1:34 AM,6.8,-0.4,72,30.25,5.0,North,17.3,20.7,N/A,,Haze,350,2014-03-01 07:34:00
1:54 AM,6.8,1.4,79,30.26,5.0,North,12.7,18.4,N/A,,Haze,10,2014-03-01 07:54:00
2:14 AM,5.0,-0.4,78,30.27,5.0,North,11.5,17.3,N/A,Snow,Light Snow,10,2014-03-01 08:14:00
2:34 AM,5.0,-0.4,78,30.26,7.0,NNE,12.7,17.3,N/A,Snow,Light Snow,20,2014-03-01 08:34:00
2:54 AM,5.0,-4.0,66,30.27,10.0,North,12.7,18.4,N/A,,Overcast,10,2014-03-01 08:54:00
3:14 AM,5.0,-2.2,72,30.25,10.0,North,13.8,18.4,N/A,,Overcast,10,2014-03-01 09:14:00
3:34 AM,5.0,-4.0,66,30.26,7.0,North,13.8,21.9,N/A,,Overcast,10,2014-03-01 09:34:00
3:54 AM,3.2,-4.0,72,30.27,10.0,North,12.7,21.9,N/A,,Overcast,10,2014-03-01 09:54:00
4:14 AM,3.2,-4.0,72,30.27,10.0,North,11.5,20.7,N/A,,Overcast,10,2014-03-01 10:14:00
4:35 AM,3.2,-5.8,66,30.29,10.0,North,12.7,23.0,N/A,,Overcast,10,2014-03-01 10:35:00
4:54 AM,3.2,-5.8,66,30.30,10.0,NNE,12.7,-,N/A,,Overcast,20,2014-03-01 10:54:00
5:14 AM,1.4,-5.8,72,30.31,4.0,North,11.5,20.7,N/A,,Haze,10,2014-03-01 11:14:00
5:34 AM,1.4,-5.8,72,30.32,4.0,North,15.0,21.9,N/A,Snow,Light Snow,10,2014-03-01 11:34:00
5:54 AM,1.4,-5.8,72,30.33,4.0,North,8.1,-,N/A,Snow,Light Snow,10,2014-03-01 11:54:00
6:14 AM,1.4,-5.8,72,30.34,5.0,North,12.7,18.4,N/A,,Haze,10,2014-03-01 12:14:00
6:34 AM,1.4,-7.6,66,30.34,5.0,NNE,10.4,-,N/A,Snow,Light Snow,20,2014-03-01 12:34:00
6:54 AM,-0.4,-7.6,72,30.35,4.0,NNE,11.5,17.3,N/A,Snow,Light Snow,30,2014-03-01 12:54:00
7:14 AM,-0.4,-7.6,72,30.36,1.5,North,12.7,18.4,N/A,Snow,Light Snow,10,2014-03-01 13:14:00
7:34 AM,-0.4,-7.6,72,30.36,0.5,North,13.8,19.6,N/A,Snow,Snow,10,2014-03-01 13:34:00
7:54 AM,-0.4,-7.6,72,30.36,1.0,NNE,11.5,17.3,N/A,Snow,Light Snow,20,2014-03-01 13:54:00
8:14 AM,-0.4,-7.6,72,30.39,0.8,NNE,11.5,16.1,N/A,Snow,Light Snow,20,2014-03-01 14:14:00
8:35 AM,-0.4,-7.6,72,30.41,1.0,North,12.7,16.1,N/A,Snow,Light Snow,10,2014-03-01 14:35:00
8:54 AM,-0.4,-7.6,72,30.42,0.8,North,12.7,20.7,N/A,Snow,Light Snow,10,2014-03-01 14:54:00
9:14 AM,-0.4,-9.4,66,30.44,1.2,North,13.8,18.4,N/A,Snow,Light Snow,10,2014-03-01 15:14:00
9:35 AM,-0.4,-7.6,72,30.43,1.2,NNE,10.4,16.1,N/A,Snow,Light Snow,20,2014-03-01 15:35:00
9:54 AM,-0.4,-7.6,72,30.43,0.8,North,12.7,18.4,N/A,Snow,Light Snow,360,2014-03-01 15:54:00
10:14 AM,-0.4,-9.4,66,30.45,1.8,North,9.2,-,N/A,Snow,Light Snow,10,2014-03-01 16:14:00
10:35 AM,-0.4,-9.4,66,30.45,2.0,North,10.4,16.1,N/A,Snow,Light Snow,360,2014-03-01 16:35:00
10:54 AM,-0.4,-9.4,66,30.46,3.0,North,10.4,-,N/A,,Haze,360,2014-03-01 16:54:00
11:14 AM,1.4,-9.4,61,30.47,3.0,North,10.4,-,N/A,,Haze,360,2014-03-01 17:14:00
11:34 AM,1.4,-7.6,66,30.47,5.0,NNE,9.2,-,N/A,,Haze,20,2014-03-01 17:34:00
11:55 AM,1.4,-7.6,66,30.45,7.0,NNE,8.1,-,N/A,Snow,Light Snow,20,2014-03-01 17:55:00
12:14 PM,1.4,-9.4,61,30.45,5.0,North,15.0,19.6,N/A,Snow,Light Snow,10,2014-03-01 18:14:00
12:34 PM,1.4,-9.4,61,30.45,3.0,North,12.7,-,N/A,Snow,Light Snow,10,2014-03-01 18:34:00
12:55 PM,1.4,-9.4,61,30.44,4.0,North,10.4,-,N/A,,Haze,360,2014-03-01 18:55:00
1:14 PM,1.4,-7.6,66,30.43,1.8,North,11.5,16.1,N/A,Snow,Light Snow,360,2014-03-01 19:14:00
1:35 PM,1.4,-9.4,61,30.43,5.0,North,12.7,-,N/A,Snow,Light Snow,350,2014-03-01 19:35:00
1:54 PM,1.4,-9.4,61,30.44,2.5,North,12.7,-,N/A,Snow,Light Snow,350,2014-03-01 19:54:00
2:14 PM,1.4,-7.6,66,30.43,1.8,NNW,11.5,-,N/A,Snow,Light Snow,340,2014-03-01 20:14:00
2:35 PM,-0.4,-9.4,66,30.42,2.0,North,13.8,-,N/A,Snow,Light Snow,360,2014-03-01 20:35:00
2:54 PM,1.4,-9.4,61,30.43,2.5,North,12.7,18.4,N/A,Snow,Light Snow,350,2014-03-01 20:54:00
3:14 PM,1.4,-9.4,61,30.43,5.0,North,11.5,-,N/A,,Haze,350,2014-03-01 21:14:00
3:35 PM,1.4,-9.4,61,30.44,1.8,North,10.4,-,N/A,Snow,Light Snow,360,2014-03-01 21:35:00
3:54 PM,1.4,-7.6,66,30.46,1.5,North,11.5,-,N/A,Snow,Light Snow,350,2014-03-01 21:54:00
4:14 PM,1.4,-7.6,66,30.45,3.0,NNW,10.4,-,N/A,Snow,Light Snow,340,2014-03-01 22:14:00
4:35 PM,1.4,-7.6,66,30.45,2.5,NNW,11.5,-,N/A,Snow,Light Snow,330,2014-03-01 22:35:00
4:54 PM,-0.4,-7.6,72,30.45,1.2,NNW,13.8,-,N/A,Snow,Light Snow,340,2014-03-01 22:54:00
5:15 PM,-0.4,-7.6,72,30.45,0.5,NNW,16.1,-,N/A,Snow,Light Snow,340,2014-03-01 23:15:00
5:34 PM,-0.4,-7.6,72,30.46,0.8,NNW,15.0,-,N/A,Snow,Light Snow,340,2014-03-01 23:34:00
5:54 PM,-0.4,-7.6,72,30.46,1.0,North,12.7,-,N/A,Snow,Light Snow,350,2014-03-01 23:54:00
6:15 PM,-0.4,-7.6,72,30.46,-9999.0,NNW,13.8,17.3,N/A,,Overcast,340,2014-03-02 00:15:00
6:34 PM,-2.2,-7.6,78,30.45,-9999.0,North,13.8,-,N/A,,Overcast,350,2014-03-02 00:34:00
6:55 PM,-2.2,-9.4,71,30.46,-9999.0,NNW,11.5,-,N/A,,Overcast,340,2014-03-02 00:55:00
7:14 PM,-2.2,-9.4,71,30.47,-9999.0,North,13.8,-,N/A,,Overcast,350,2014-03-02 01:14:00
7:34 PM,-2.2,-9.4,71,30.47,-9999.0,North,10.4,-,N/A,,Overcast,350,2014-03-02 01:34:00
7:55 PM,-2.2,-11.2,66,30.48,-9999.0,NNW,11.5,-,N/A,,Overcast,340,2014-03-02 01:55:00
8:14 PM,-2.2,-13.0,60,30.48,-9999.0,NNW,11.5,-,N/A,,Overcast,340,2014-03-02 02:14:00
8:34 PM,-2.2,-13.0,60,30.48,-9999.0,NNW,9.2,-,N/A,,Mostly Cloudy,340,2014-03-02 02:34:00
8:55 PM,-2.2,-13.0,60,30.49,-9999.0,NNW,13.8,-,N/A,,Scattered Clouds,340,2014-03-02 02:55:00
9:14 PM,-2.2,-11.2,66,30.50,-9999.0,NNW,12.7,-,N/A,,Clear,340,2014-03-02 03:14:00
9:34 PM,-4.0,-14.8,60,30.50,10.0,North,8.1,-,N/A,,Clear,350,2014-03-02 03:34:00
9:55 PM,-4.0,-13.0,65,30.51,10.0,NNW,9.2,-,N/A,,Scattered Clouds,340,2014-03-02 03:55:00
10:14 PM,-4.0,-14.8,60,30.52,10.0,North,11.5,-,N/A,,Scattered Clouds,350,2014-03-02 04:14:00
10:35 PM,-4.0,-16.6,55,30.52,10.0,NNW,11.5,16.1,N/A,,Scattered Clouds,330,2014-03-02 04:35:00
10:54 PM,-4.0,-16.6,55,30.52,10.0,NNW,11.5,-,N/A,,Scattered Clouds,340,2014-03-02 04:54:00
11:14 PM,-4.0,-16.6,55,30.52,10.0,NNW,9.2,-,N/A,,Clear,340,2014-03-02 05:14:00
11:35 PM,-5.8,-16.6,60,30.52,10.0,NNW,5.8,-,N/A,,Clear,340,2014-03-02 05:35:00
11:54 PM,-5.8,-16.6,60,30.51,10.0,North,6.9,-,N/A,,Clear,350,2014-03-02 05:54:00